Regional Weather Roundup
Issued by NWS Glasgow, MT

Home | Current Version | Previous Version | Text Only | Print | Product List | Glossary On
Versions: 1 2 3 4 5 6 7 8 9 10 11 12 13 14 15 16 17 18 19 20 21 22 23 24 25 26 27 28 29 30 31 32 33 34 35 36 37 38 39 40 41 42 43 44 45 46 47 48 49 50
810
ASUS45 KGGW 010615
RWRGGW
HOURLY REGIONAL WEATHER ROUNDUP FOR NORTHEAST MONTANA
NATIONAL WEATHER SERVICE GLASGOW MONTANA
1200 AM MDT SUN MAY 01 2016

NOTE: "FAIR" INDICATES FEW OR NO CLOUDS BELOW 12,000 FEET WITH NO
SIGNIFICANT WEATHER AND/OR OBSTRUCTIONS TO VISISBILITY.

NORTHEAST MONTANA


CITY           SKY/WX    TMP DP  RH WIND       PRES   REMARKS
GLASGOW        CLEAR     43  30  60 E6        30.32R
6HR MIN TEMP:  43; 6HR MAX TEMP:  63;

PLENTYWOOD       N/A     46  25  43 E8          N/A
WOLF POINT     CLEAR     41  32  70 CALM      30.33R
JORDAN           N/A     37  34  89 CALM      30.32R
WINNETT          N/A     37  34  89 S3          N/A
SIDNEY         CLEAR     39  30  70 NW6       30.32R
GLENDIVE       CLEAR     45  30  57 CALM      30.34R
MALTA            N/A     39  34  82 W2          N/A
SCOBEY           N/A     40  21  47 CALM      30.29S
OPHEIM           N/A     48  23  37 CALM      30.19F

FORT PECK REPORTS


CITY           SKY/WX    TMP DP  RH WIND       PRES   REMARKS
FORT PECK        N/A     49  30  48 NE3         N/A
THE PINES        N/A     48  29  47 SW2         N/A

SOUTHEAST MONTANA


CITY           SKY/WX    TMP DP  RH WIND       PRES   REMARKS
BILLINGS       MOCLDY    42  34  73 NW7       30.31S
MILES CITY     CLOUDY    45  35  68 N8        30.30S
BAKER          CLEAR     37  28  70 CALM      30.31R
LIVINGSTON     CLOUDY    42  34  73 E8        30.31S

CENTRAL MONTANA


CITY           SKY/WX    TMP DP  RH WIND       PRES   REMARKS
HAVRE          CLEAR     41  35  79 SW5       30.33S
LEWISTOWN      CLOUDY    43  36  76 SE3       30.34S
GREAT FALLS    PTCLDY    41  33  73 SE7       30.33S
CUT BANK       PTCLDY    37  33  85 N5        30.34S
HELENA         CLOUDY    43  36  76 W7        30.31R
BUTTE          CLOUDY    42  29  59 VRB5      30.30R
BOZEMAN        CLOUDY    41  30  65 W7        30.29S

WESTERN MONTANA


CITY           SKY/WX    TMP DP  RH WIND       PRES   REMARKS
MISSOULA       CLOUDY    48  42  80 CALM      30.29S
KALISPELL      NOT AVBL

NORTH DAKOTA


CITY           SKY/WX    TMP DP  RH WIND       PRES   REMARKS
WILLISTON      CLEAR     40  30  67 N12       30.32R
DICKINSON      CLEAR     34  26  72 W5        30.27S
MINOT          CLEAR     41  27  57 NW8       30.31R
BISMARCK       CLEAR     40  32  73 N6        30.28R

SOUTHERN SASKATCHEWAN


CITY           SKY/WX    TMP DP  RH WIND       PRES   REMARKS
REGINA         CLEAR     41  23  48 SE10      30.33S
ESTEVAN        NOT AVBL
SWIFT CURRENT  CLOUDY    46  27  46 S8        30.31S





USA.gov is the U.S. government's official web portal to all federal, state and local government web resources and services.